PBD920 UNNT-UNKL

Flight info

Callsign PBD920
Flight time N/A
Altitude 31000
Route OGATI1L OGATI A308 RISPA A366 KESED A309 ROTLI A300 RANET RANET2Z
Aircraft B738/M-SDE2E3FGHIRWXY/LB1

Departure

Time 2026-05-01 15:04
Airport Novosibirsk Tolmachevo Airport (UNNT)

Arrival

Time N/A
Airport Krasnoyarsk International Airport (UNKL)
Time Latitude Longitude Altitude Speed Heading
2026-05-01 14:40 55.01140 82.67019 372 ft 0 kts 171°
2026-05-01 14:55 55.01130 82.67021 372 ft 3 kts 171°
2026-05-01 14:56 55.01094 82.67009 372 ft 7 kts 224°
2026-05-01 14:56 55.01084 82.66906 372 ft 11 kts 289°
2026-05-01 14:56 55.01098 82.66761 372 ft 13 kts 264°
2026-05-01 14:56 55.01072 82.66600 372 ft 14 kts 247°
2026-05-01 14:57 55.01036 82.66447 372 ft 13 kts 248°
2026-05-01 14:57 55.00973 82.66156 372 ft 13 kts 244°
2026-05-01 14:57 55.00950 82.66013 372 ft 12 kts 261°
2026-05-01 14:58 55.00937 82.65867 372 ft 12 kts 261°
2026-05-01 14:58 55.00924 82.65724 372 ft 12 kts 261°
2026-05-01 14:58 55.00911 82.65585 372 ft 12 kts 261°
2026-05-01 14:58 55.00899 82.65449 372 ft 11 kts 261°
2026-05-01 14:59 55.00886 82.65304 372 ft 13 kts 264°
2026-05-01 14:59 55.00879 82.65130 372 ft 16 kts 261°
2026-05-01 14:59 55.00881 82.64932 372 ft 17 kts 282°
2026-05-01 14:59 55.00910 82.64712 372 ft 20 kts 283°
2026-05-01 15:00 55.00977 82.64197 372 ft 24 kts 282°
2026-05-01 15:00 55.01013 82.64018 373 ft 13 kts 322°
2026-05-01 15:00 55.01021 82.64012 373 ft 0 kts 343°
2026-05-01 15:01 55.01024 82.64010 373 ft 2 kts 343°
2026-05-01 15:02 55.01066 82.63996 374 ft 11 kts 351°
2026-05-01 15:02 55.01127 82.63998 374 ft 15 kts 21°
2026-05-01 15:02 55.01153 82.64070 374 ft 0 kts 80°
2026-05-01 15:03 55.01184 82.64416 372 ft 72 kts 81°
2026-05-01 15:04 55.01308 82.65772 371 ft 151 kts 81°
2026-05-01 15:04 55.01472 82.67918 645 ft 199 kts 84°
2026-05-01 15:04 55.01636 82.70409 1434 ft 210 kts 88°
2026-05-01 15:04 55.01827 82.72878 2512 ft 204 kts 86°
2026-05-01 15:05 55.02100 82.75396 2932 ft 223 kts 85°
2026-05-01 15:05 55.02384 82.78143 3390 ft 234 kts 85°
2026-05-01 15:05 55.02658 82.80984 3887 ft 242 kts 85°
2026-05-01 15:05 55.02926 82.83899 3937 ft 242 kts 87°
2026-05-01 15:06 55.02794 82.86770 3941 ft 239 kts 117°
2026-05-01 15:06 55.01851 82.89209 4297 ft 250 kts 134°
2026-05-01 15:06 55.00613 82.91370 5191 ft 253 kts 137°
2026-05-01 15:06 54.99342 82.93491 5712 ft 256 kts 138°
2026-05-01 15:07 54.98070 82.95684 5971 ft 262 kts 131°
2026-05-01 15:07 54.97315 82.98605 6058 ft 274 kts 102°
2026-05-01 15:07 54.97204 83.01962 6742 ft 281 kts 94°
2026-05-01 15:07 54.97195 83.05378 7643 ft 283 kts 93°
2026-05-01 15:08 54.97191 83.08843 8464 ft 289 kts 93°
2026-05-01 15:08 54.97178 83.12376 9264 ft 295 kts 93°
2026-05-01 15:08 54.97155 83.15992 10062 ft 302 kts 94°
2026-05-01 15:08 54.97124 83.19731 10505 ft 320 kts 94°
2026-05-01 15:09 54.97076 83.23766 10715 ft 346 kts 95°
2026-05-01 15:09 54.96857 83.28081 10890 ft 369 kts 99°
2026-05-01 15:09 54.96516 83.32632 11055 ft 390 kts 100°
2026-05-01 15:09 54.96128 83.37397 11437 ft 403 kts 100°
2026-05-01 15:10 54.95733 83.42256 12038 ft 408 kts 100°
2026-05-01 15:10 54.94953 83.52161 13298 ft 418 kts 99°
2026-05-01 15:10 54.94564 83.57207 13903 ft 423 kts 99°
2026-05-01 15:11 54.94175 83.62298 14483 ft 427 kts 99°
2026-05-01 15:11 54.93385 83.72609 15649 ft 434 kts 99°
2026-05-01 15:11 54.92982 83.77829 16206 ft 438 kts 99°
2026-05-01 15:12 54.92573 83.83102 16752 ft 442 kts 99°
2026-05-01 15:12 54.91737 83.93779 17844 ft 450 kts 99°
2026-05-01 15:12 54.91310 83.99180 18355 ft 453 kts 99°
2026-05-01 15:13 54.89997 84.15593 19862 ft 460 kts 99°
2026-05-01 15:14 54.89100 84.26638 20841 ft 464 kts 100°
2026-05-01 15:14 54.88645 84.32201 21309 ft 466 kts 100°
2026-05-01 15:14 54.87720 84.43402 22184 ft 470 kts 100°
2026-05-01 15:15 54.86779 84.54677 23069 ft 474 kts 100°
2026-05-01 15:15 54.85813 84.66122 23672 ft 483 kts 99°
2026-05-01 15:16 54.85104 84.77754 24362 ft 487 kts 96°
2026-05-01 15:16 54.84571 84.89441 24970 ft 491 kts 96°
2026-05-01 15:17 54.83945 85.01306 25556 ft 496 kts 97°
2026-05-01 15:18 54.82958 85.19295 26378 ft 503 kts 95°
2026-05-01 15:18 54.83018 85.25339 26686 ft 504 kts 80°
2026-05-01 15:19 54.88267 85.40515 28049 ft 492 kts 43°
2026-05-01 15:19 54.93119 85.48926 28835 ft 493 kts 43°
2026-05-01 15:19 54.95535 85.53171 29202 ft 493 kts 43°
2026-05-01 15:20 54.99501 85.60272 29954 ft 491 kts 44°
2026-05-01 15:20 55.01864 85.64554 30408 ft 488 kts 44°
2026-05-01 15:20 55.04195 85.68801 30946 ft 483 kts 44°
2026-05-01 15:21 55.06525 85.73050 31016 ft 487 kts 44°
2026-05-01 15:21 55.11209 85.81608 31038 ft 486 kts 44°
2026-05-01 15:22 55.18253 85.94198 31045 ft 480 kts 39°
2026-05-01 15:22 55.20489 85.98555 31048 ft 485 kts 54°
2026-05-01 15:22 55.21991 86.03853 31056 ft 490 kts 70°
2026-05-01 15:23 55.22634 86.09718 31056 ft 493 kts 87°
2026-05-01 15:23 55.22360 86.15684 31055 ft 494 kts 103°
2026-05-01 15:23 55.19885 86.26883 31032 ft 495 kts 115°
2026-05-01 15:24 55.16908 86.37758 31029 ft 496 kts 116°
2026-05-01 15:24 55.13879 86.48632 31033 ft 497 kts 116°
2026-05-01 15:25 55.10866 86.59418 31035 ft 497 kts 116°
2026-05-01 15:25 55.07836 86.70272 31039 ft 497 kts 116°
2026-05-01 15:26 55.04793 86.81128 31037 ft 498 kts 116°
2026-05-01 15:26 55.01737 86.91963 31039 ft 498 kts 116°
2026-05-01 15:27 54.98677 87.02806 31041 ft 499 kts 116°
2026-05-01 15:28 54.94428 87.19266 31031 ft 496 kts 101°
2026-05-01 15:28 54.94049 87.25194 31061 ft 493 kts 90°
2026-05-01 15:28 54.94038 87.31159 31059 ft 492 kts 87°
2026-05-01 15:29 54.94320 87.48988 31051 ft 492 kts 86°
2026-05-01 15:29 54.94700 87.60841 31049 ft 488 kts 75°
2026-05-01 15:30 54.98050 87.70579 31080 ft 468 kts 35°
2026-05-01 15:31 55.13628 87.91012 31090 ft 470 kts 34°
2026-05-01 15:32 55.23905 88.05109 31091 ft 469 kts 34°
2026-05-01 15:34 55.39309 88.26318 31103 ft 469 kts 34°